Saginaw, MI

12:40 AM EST on December 13, 2017 (GMT -0500)
MBS International

Weather History for KMBS - January, 2015

Change the Weather History Date:

Thursday, January 22, 2015

  Actual Average Record
Temperature  
Mean Temperature 26 °F 22 °F  
Max Temperature 31 °F 29 °F 43 °F (1997)
Min Temperature 20 °F 15 °F -6 °F (2000)
Degree Days  
Heating Degree Days 39    
Month to date heating degree days 988  
Since 1 July heating degree days 3497  
Cooling Degree Days 0    
Month to date cooling degree days 0  
Year to date cooling degree days 0  
Moisture  
Dew Point 19 °F    
Average Humidity 80    
Maximum Humidity 92    
Minimum Humidity 68    
Precipitation  
Precipitation T in 0.05 in 0.49 in (1999)
Month to date precipitation 0.98 1.29  
Year to date precipitation 0.98 1.29  
Snow  
Snow T in - - ()
Month to date snowfall 10.5  
Since 1 July snowfall 14.3  
Snow Depth 5.00 in    
Sea Level Pressure  
Sea Level Pressure 30.36 in    
Wind  
Wind Speed 6 mph (WSW)    
Max Wind Speed 10 mph    
Max Gust Speed 13 mph    
Visibility 9 miles    
Events      
T = Trace of Precipitation, MM = Missing Value Source: NWS Daily Summary

Daily Weather History Graph

Daily Weather History Graph

Search for Another Location

Airport or City:

Trip Planner

Search our weather history database for the weather conditions in past years. The results will help you decide how hot, cold, wet, or windy it might be!

Date:

Astronomy

Jan. 22, 2015 Rise Set
Actual Time 8:02 AM EST 5:34 PM EST
Civil Twilight 7:30 AM EST 6:05 PM EST
Nautical Twilight 6:55 AM EST 6:40 PM EST
Astronomical Twilight 6:21 AM EST 7:14 PM EST
Moon 9:08 AM EST (1/22) 8:38 PM EST (1/22)
Length of Visible Light 10h 34m
Length of Day
9h 32m
Waxing Crescent, 7% of the Moon is Illuminated
Jan 22
Waxing Crescent
Jan 26
First Quarter
Feb 3
Full
Feb 11
Last Quarter
Feb 18
New

Hourly Weather History & Observations

Time (EST) Temp. Windchill Dew Point Humidity Pressure Visibility Wind Dir Wind Speed Gust Speed Precip Events Conditions
12:41 AM 21.0 °F 14.6 °F 17.1 °F 85% 30.22 in 10.0 mi West 4.6 mph - N/A   Overcast
12:53 AM 21.0 °F 14.6 °F 16.0 °F 81% 30.25 in 10.0 mi WSW 4.6 mph - N/A   Overcast
1:53 AM 21.9 °F 17.2 °F 17.1 °F 82% 30.27 in 10.0 mi WNW 3.5 mph - N/A   Overcast
2:53 AM 21.9 °F 15.7 °F 17.1 °F 82% 30.27 in 10.0 mi WNW 4.6 mph - N/A   Overcast
3:53 AM 21.9 °F 13.4 °F 18.0 °F 85% 30.30 in 10.0 mi West 6.9 mph - N/A   Overcast
4:53 AM 21.9 °F 14.5 °F 19.0 °F 89% 30.31 in 10.0 mi West 5.8 mph - 0.00 in   Overcast
5:53 AM 23.0 °F 15.8 °F 19.0 °F 85% 30.32 in 10.0 mi WSW 5.8 mph - N/A   Overcast
6:53 AM 23.0 °F 15.8 °F 19.0 °F 85% 30.34 in 9.0 mi West 5.8 mph - N/A   Overcast
7:53 AM 23.0 °F 18.4 °F 19.0 °F 85% 30.37 in 8.0 mi WNW 3.5 mph - N/A   Overcast
8:53 AM 21.2 °F 16.4 °F 19.4 °F 93% 30.36 in 6.0 mi SW 3.5 mph - N/A   Overcast
9:18 AM 21.0 °F 13.4 °F 18.0 °F 88% 30.36 in 6.0 mi WSW 5.8 mph - N/A   Scattered Clouds
9:53 AM 21.0 °F 13.4 °F 18.0 °F 88% 30.41 in 5.0 mi WSW 5.8 mph - N/A   Clear
10:53 AM 23.0 °F 15.8 °F 18.0 °F 81% 30.42 in 8.0 mi SW 5.8 mph - N/A   Clear
11:42 AM 26.1 °F 19.4 °F 19.0 °F 75% 30.38 in 10.0 mi WSW 5.8 mph - N/A   Mostly Cloudy
11:53 AM 26.1 °F 18.4 °F 19.0 °F 75% 30.41 in 10.0 mi WSW 6.9 mph - N/A   Overcast
12:53 PM 28.0 °F 20.0 °F 19.9 °F 72% 30.41 in 10.0 mi WSW 8.1 mph - N/A   Overcast
1:39 PM 28.9 °F 21.1 °F 21.0 °F 72% 30.37 in 10.0 mi SW 8.1 mph - N/A   Overcast
1:53 PM 28.9 °F 21.1 °F 21.0 °F 72% 30.40 in 10.0 mi SW 8.1 mph - N/A   Overcast
2:18 PM 30.0 °F 21.7 °F 21.0 °F 69% 30.36 in 10.0 mi WSW 9.2 mph - N/A   Overcast
2:53 PM 30.0 °F 22.4 °F 21.0 °F 69% 30.39 in 10.0 mi WSW 8.1 mph - N/A   Overcast
3:53 PM 30.2 °F 22.6 °F 21.2 °F 69% 30.37 in 10.0 mi WSW 8.1 mph - N/A   Overcast
4:53 PM 30.9 °F 23.5 °F 21.0 °F 67% 30.42 in 10.0 mi West 8.1 mph - N/A   Overcast
5:53 PM 30.0 °F 23.2 °F 21.0 °F 69% 30.40 in 10.0 mi WSW 6.9 mph - N/A   Overcast
6:53 PM 28.0 °F 21.7 °F 19.0 °F 69% 30.41 in 10.0 mi SW 5.8 mph - N/A   Mostly Cloudy
7:53 PM 25.0 °F 19.3 °F 18.0 °F 75% 30.41 in 10.0 mi SW 4.6 mph - N/A   Partly Cloudy
8:53 PM 26.1 °F 18.4 °F 18.0 °F 71% 30.39 in 10.0 mi SSW 6.9 mph - N/A   Scattered Clouds
9:09 PM 25.0 °F 18.1 °F 18.0 °F 75% 30.36 in 10.0 mi SSW 5.8 mph - N/A   Mostly Cloudy
9:53 PM 27.0 °F 18.7 °F 19.0 °F 72% 30.39 in 10.0 mi SSW 8.1 mph - N/A   Mostly Cloudy
10:16 PM 25.0 °F 15.5 °F 18.0 °F 75% 30.35 in 10.0 mi SW 9.2 mph - N/A   Scattered Clouds
10:53 PM 25.0 °F 14.8 °F 17.1 °F 72% 30.38 in 10.0 mi SW 10.4 mph - N/A   Clear
11:53 PM 23.0 °F 13.1 °F 17.1 °F 78% 30.35 in 10.0 mi SW 9.2 mph - N/A   Clear